When you browse on this site, cookies collect data to enhance your experience and personalize the content and advertising you see.
Visit our Privacy Policy to learn more. By continuing to use the site, you agree to this use of cookies and data.
  • In Hungary
  • List of Countries
  • For 7 days
  • Water Temperature
  • Satellite Maps
  • Weather Map
  • News
  • Weather Widgets
  • user-avatar
    Login

    Hourly Weather Mazatecochco

    Today, 17 February, Sunday

    Time Temperature Precipitation Wind Pressure Humidity
    00:00 +16°C° 0 mm 1 mps 575 mmHg 40%
    01:00 +15°C° 0 mm 1 mps 574 mmHg 40%
    02:00 +15°C° 0 mm 1 mps 574 mmHg 41%
    03:00 +14°C° 0 mm 1 mps 574 mmHg 43%
    04:00 +14°C° 0 mm 1 mps 574 mmHg 44%
    05:00 +13°C° 0 mm 1 mps 574 mmHg 46%
    06:00 +15°C° 0 mm 1 mps 575 mmHg 44%
    07:00 +16°C° 0 mm 1 mps 576 mmHg 42%
    08:00 +19°C° 0 mm 1 mps 577 mmHg 40%
    09:00 +20°C° 0 mm 2 mps 577 mmHg 35%
    10:00 +23°C° 0 mm 2 mps 578 mmHg 30%
    11:00 +25°C° 0 mm 3 mps 579 mmHg 24%
    12:00 +26°C° 0 mm 4 mps 579 mmHg 23%
    13:00 +26°C° 0 mm 4 mps 578 mmHg 22%
    14:00 +27°C° 0 mm 4 mps 578 mmHg 20%
    15:00 +26°C° 0 mm 4 mps 577 mmHg 23%
    16:00 +23°C° 0 mm 4 mps 577 mmHg 25%
    17:00 +22°C° 0 mm 4 mps 577 mmHg 28%
    18:00 +21°C° 0 mm 3 mps 577 mmHg 32%
    19:00 +19°C° 0 mm 2 mps 576 mmHg 36%
    20:00 +18°C° 0 mm 1 mps 576 mmHg 40%
    21:00 +18°C° 0 mm 1 mps 576 mmHg 42%
    22:00 +16°C° 0 mm 1 mps 576 mmHg 44%
    23:00 +14°C° 0 mm 0 mps 576 mmHg 46%

    Tomorrow, 18 February, Monday

    Time Temperature Precipitation Wind Pressure Humidity
    00:00 +14°C° 0 mm 0 mps 576 mmHg 47%
    01:00 +13°C° 0 mm 0 mps 575 mmHg 49%
    02:00 +13°C° 0 mm 0 mps 575 mmHg 50%
    03:00 +13°C° 0 mm 0 mps 575 mmHg 51%
    04:00 +12°C° 0 mm 0 mps 575 mmHg 52%
    05:00 +13°C° 0 mm 1 mps 575 mmHg 53%
    06:00 +13°C° 0 mm 0 mps 576 mmHg 48%
    07:00 +15°C° 0 mm 0 mps 577 mmHg 43%
    08:00 +17°C° 0 mm 0 mps 578 mmHg 38%
    09:00 +21°C° 0 mm 1 mps 579 mmHg 34%
    10:00 +23°C° 0 mm 2 mps 580 mmHg 30%
    11:00 +24°C° 0 mm 3 mps 580 mmHg 26%
    12:00 +25°C° 0 mm 4 mps 580 mmHg 25%
    13:00 +25°C° 0 mm 5 mps 579 mmHg 25%
    14:00 +26°C° 0 mm 5 mps 579 mmHg 24%
    15:00 +25°C° 0 mm 5 mps 578 mmHg 27%
    16:00 +23°C° 0 mm 5 mps 578 mmHg 29%
    17:00 +21°C° 0 mm 4 mps 577 mmHg 32%
    18:00 +20°C° 0.1 mm 3 mps 577 mmHg 34%
    19:00 +18°C° 0.1 mm 2 mps 577 mmHg 37%
    20:00 +18°C° 0.1 mm 1 mps 577 mmHg 40%
    21:00 +16°C° 0.1 mm 1 mps 577 mmHg 42%
    22:00 +16°C° 0.1 mm 1 mps 577 mmHg 45%
    23:00 +16°C° 0.1 mm 1 mps 577 mmHg 48%

    Day after tomorrow, 19 February, Tuesday

    Time Temperature Precipitation Wind Pressure Humidity
    00:00 +15°C° 0 mm 1 mps 576 mmHg 52%
    01:00 +14°C° 0 mm 1 mps 575 mmHg 56%
    02:00 +14°C° 0 mm 1 mps 575 mmHg 60%
    03:00 +13°C° 0 mm 1 mps 575 mmHg 59%
    04:00 +13°C° 0 mm 1 mps 575 mmHg 58%
    05:00 +12°C° 0 mm 1 mps 575 mmHg 57%
    06:00 +14°C° 0 mm 1 mps 575 mmHg 51%
    07:00 +15°C° 0 mm 1 mps 576 mmHg 46%
    08:00 +17°C° 0 mm 2 mps 577 mmHg 40%
    09:00 +18°C° 0 mm 3 mps 578 mmHg 35%
    10:00 +20°C° 0 mm 4 mps 579 mmHg 30%
    11:00 +22°C° 0 mm 5 mps 579 mmHg 25%
    12:00 +22°C° 0 mm 6 mps 579 mmHg 22%
    13:00 +23°C° 0 mm 6 mps 578 mmHg 20%
    14:00 +23°C° 0 mm 6 mps 577 mmHg 17%
    15:00 +22°C° 0 mm 6 mps 577 mmHg 19%
    16:00 +21°C° 0 mm 5 mps 576 mmHg 21%
    17:00 +20°C° 0 mm 5 mps 576 mmHg 23%
    18:00 +19°C° 0 mm 3 mps 576 mmHg 26%
    19:00 +17°C° 0 mm 2 mps 575 mmHg 28%
    20:00 +16°C° 0 mm 1 mps 575 mmHg 31%
    21:00 +15°C° 0 mm 1 mps 575 mmHg 33%
    22:00 +15°C° 0 mm 1 mps 575 mmHg 35%
    23:00 +14°C° 0 mm 1 mps 575 mmHg 38%

    20 February, Wednesday

    Time Temperature Precipitation Wind Pressure Humidity
    00:00 +14°C° 0 mm 1 mps 574 mmHg 39%
    01:00 +13°C° 0 mm 1 mps 574 mmHg 41%
    02:00 +12°C° 0 mm 1 mps 573 mmHg 43%
    03:00 +12°C° 0 mm 1 mps 573 mmHg 44%
    04:00 +11°C° 0 mm 1 mps 573 mmHg 44%
    05:00 +11°C° 0 mm 1 mps 573 mmHg 45%
    06:00 +13°C° 0 mm 1 mps 574 mmHg 42%
    07:00 +14°C° 0 mm 1 mps 575 mmHg 38%
    08:00 +16°C° 0 mm 1 mps 576 mmHg 35%
    09:00 +18°C° 0 mm 2 mps 576 mmHg 31%
    10:00 +20°C° 0 mm 3 mps 577 mmHg 27%
    11:00 +21°C° 0 mm 5 mps 578 mmHg 23%
    12:00 +22°C° 0 mm 5 mps 577 mmHg 22%
    13:00 +22°C° 0 mm 6 mps 577 mmHg 21%
    14:00 +23°C° 0 mm 6 mps 576 mmHg 19%
    15:00 +22°C° 0 mm 6 mps 576 mmHg 21%
    16:00 +21°C° 0 mm 5 mps 575 mmHg 22%
    17:00 +20°C° 0 mm 5 mps 575 mmHg 23%
    18:00 +18°C° 0 mm 4 mps 575 mmHg 25%
    19:00 +17°C° 0 mm 3 mps 575 mmHg 28%
    20:00 +15°C° 0 mm 2 mps 575 mmHg 30%
    21:00 +15°C° 0 mm 2 mps 574 mmHg 31%
    22:00 +14°C° 0 mm 2 mps 574 mmHg 32%
    23:00 +13°C° 0 mm 1 mps 574 mmHg 33%

    21 February, Thursday

    Time Temperature Precipitation Wind Pressure Humidity
    00:00 +13°C° 0 mm 1 mps 574 mmHg 33%
    01:00 +12°C° 0 mm 1 mps 573 mmHg 33%
    02:00 +12°C° 0 mm 1 mps 573 mmHg 33%
    03:00 +11°C° 0 mm 1 mps 573 mmHg 34%
    04:00 +11°C° 0 mm 1 mps 573 mmHg 34%
    05:00 +10°C° 0 mm 1 mps 572 mmHg 34%
    06:00 +12°C° 0 mm 1 mps 574 mmHg 32%
    07:00 +14°C° 0 mm 1 mps 575 mmHg 30%
    08:00 +15°C° 0 mm 2 mps 576 mmHg 29%
    09:00 +17°C° 0 mm 3 mps 577 mmHg 25%
    10:00 +20°C° 0 mm 3 mps 577 mmHg 22%
    11:00 +22°C° 0 mm 4 mps 578 mmHg 18%
    12:00 +22°C° 0 mm 5 mps 578 mmHg 18%
    13:00 +23°C° 0 mm 5 mps 577 mmHg 17%
    14:00 +25°C° 0 mm 5 mps 577 mmHg 16%
    15:00 +23°C° 0 mm 5 mps 576 mmHg 19%
    16:00 +21°C° 0 mm 5 mps 576 mmHg 21%
    17:00 +20°C° 0 mm 5 mps 576 mmHg 23%
    18:00 +19°C° 0 mm 4 mps 575 mmHg 27%
    19:00 +17°C° 0 mm 3 mps 575 mmHg 31%
    20:00 +15°C° 0 mm 1 mps 575 mmHg 34%
    21:00 +15°C° 0 mm 1 mps 575 mmHg 36%
    22:00 +14°C° 0 mm 1 mps 575 mmHg 37%
    23:00 +14°C° 0 mm 1 mps 575 mmHg 38%

    22 February, Friday

    Time Temperature Precipitation Wind Pressure Humidity
    00:00 +13°C° 0 mm 1 mps 574 mmHg 40%
    01:00 +13°C° 0 mm 1 mps 574 mmHg 41%
    02:00 +13°C° 0 mm 1 mps 574 mmHg 42%
    03:00 +12°C° 0 mm 1 mps 574 mmHg 43%
    04:00 +12°C° 0 mm 1 mps 574 mmHg 44%
    05:00 +12°C° 0 mm 1 mps 574 mmHg 45%
    06:00 +13°C° 0 mm 1 mps 575 mmHg 41%
    07:00 +15°C° 0 mm 1 mps 576 mmHg 37%
    08:00 +18°C° 0 mm 1 mps 578 mmHg 33%
    09:00 +20°C° 0 mm 1 mps 578 mmHg 29%
    10:00 +21°C° 0 mm 2 mps 579 mmHg 25%
    11:00 +24°C° 0 mm 2 mps 579 mmHg 21%
    12:00 +25°C° 0 mm 3 mps 579 mmHg 20%
    13:00 +25°C° 0 mm 4 mps 579 mmHg 19%
    14:00 +26°C° 0 mm 4 mps 578 mmHg 18%
    15:00 +25°C° 0 mm 4 mps 578 mmHg 20%
    16:00 +23°C° 0 mm 5 mps 578 mmHg 22%
    17:00 +22°C° 0 mm 5 mps 577 mmHg 24%
    18:00 +20°C° 0 mm 3 mps 577 mmHg 28%
    19:00 +18°C° 0 mm 2 mps 577 mmHg 32%
    20:00 +18°C° 0 mm 1 mps 577 mmHg 36%
    21:00 +16°C° 0 mm 1 mps 577 mmHg 38%
    22:00 +16°C° 0 mm 1 mps 576 mmHg 40%
    23:00 +15°C° 0 mm 1 mps 576 mmHg 43%
    Show more